APSTAR-9

Last updated on Wed Sep 17 2025 00:02:49 GMT+0000 (Coordinated Universal Time)

1 40982U 15059A 25259.62478858 -.00000285 00000+0 00000+0 0 9998 2 40982 0.0390 277.3316 0003175 275.0784 170.3473 1.00272636 36376
UTC large
Height (km)
Speed (km/s)
/
Latitude / Longitude
Inclination (degrees)
Orbital Period (minutes)
Azimuth
Elevation
Range (km)
Doppler Factor

Next 0 passes for location: London (51.5072 / 0.1276)

Sorry there are no passes over London.